Saint Bonnet de Bellac- Haute Vienne - France
Donnes mto: mardi, 02/10/2012
Date Horaire Temp. E. Hum. E. P.atmo. Pluie Vent Direction Direction Ensoleilleme Solaire P. de rose Temp au vent Rafales
02/10/2012 00:00 9,6 C 82 % 1020,2 hPa 0,0 mm 0,0 km/h (0 Bft) S 180 0 min 0 W/m 6,7 C 9,6 C 0,0 km/h (0 Bft)
02/10/2012 00:10 9,5 C 83 % 1020,2 hPa 0,0 mm 0,0 km/h (0 Bft) SO 225 0 min 0 W/m 6,8 C 9,5 C 0,0 km/h (0 Bft)
02/10/2012 00:20 9,5 C 84 % 1020,2 hPa 0,0 mm 0,7 km/h (0 Bft) S-SO 202 0 min 0 W/m 6,9 C 9,5 C 4,3 km/h (1 Bft)
02/10/2012 00:30 9,4 C 84 % 1020,3 hPa 0,0 mm 0,0 km/h (0 Bft) S-SO 202 0 min 0 W/m 6,8 C 9,4 C 0,0 km/h (0 Bft)
02/10/2012 00:40 9,4 C 84 % 1020,3 hPa 0,0 mm 0,0 km/h (0 Bft) S-SO 202 0 min 0 W/m 6,8 C 9,4 C 0,0 km/h (0 Bft)
02/10/2012 00:50 9,4 C 84 % 1020,3 hPa 0,0 mm 0,0 km/h (0 Bft) S-SO 202 0 min 0 W/m 6,8 C 9,4 C 0,0 km/h (0 Bft)
02/10/2012 01:00 9,4 C 85 % 1020,3 hPa 0,0 mm 0,0 km/h (0 Bft) S-SO 202 0 min 0 W/m 7,0 C 9,4 C 0,0 km/h (0 Bft)
02/10/2012 01:10 9,4 C 85 % 1020,4 hPa 0,0 mm 0,0 km/h (0 Bft) SO 225 0 min 0 W/m 7,0 C 9,4 C 0,0 km/h (0 Bft)
02/10/2012 01:20 9,6 C 86 % 1020,3 hPa 0,0 mm 1,1 km/h (1 Bft) S-SO 202 0 min 0 W/m 7,4 C 9,6 C 2,9 km/h (1 Bft)
02/10/2012 01:30 9,8 C 86 % 1020,2 hPa 0,0 mm 0,4 km/h (0 Bft) S-SO 202 0 min 0 W/m 7,6 C 9,8 C 0,4 km/h (0 Bft)
02/10/2012 01:40 9,9 C 86 % 1020,2 hPa 0,0 mm 0,4 km/h (0 Bft) S-SO 202 0 min 0 W/m 7,7 C 9,9 C 0,4 km/h (0 Bft)
02/10/2012 01:50 10,1 C 86 % 1020,0 hPa 0,0 mm 0,0 km/h (0 Bft) S-SO 202 0 min 0 W/m 7,9 C 10,1 C 2,9 km/h (1 Bft)
02/10/2012 02:00 10,1 C 86 % 1020,2 hPa 0,0 mm 0,0 km/h (0 Bft) S-SO 202 0 min 0 W/m 7,9 C 10,1 C 0,0 km/h (0 Bft)
02/10/2012 02:10 10,1 C 86 % 1020,2 hPa 0,0 mm 2,2 km/h (1 Bft) S-SO 202 0 min 0 W/m 7,9 C 10,1 C 4,3 km/h (1 Bft)
02/10/2012 02:20 10,2 C 86 % 1020,0 hPa 0,0 mm 1,8 km/h (1 Bft) S-SO 202 0 min 0 W/m 8,0 C 10,2 C 4,3 km/h (1 Bft)
02/10/2012 02:30 10,3 C 86 % 1020,0 hPa 0,0 mm 0,0 km/h (0 Bft) SO 225 0 min 0 W/m 8,1 C 10,3 C 0,0 km/h (0 Bft)
02/10/2012 02:40 10,4 C 86 % 1020,0 hPa 0,0 mm 1,8 km/h (1 Bft) O-SO 247 0 min 0 W/m 8,2 C 10,4 C 4,3 km/h (1 Bft)
02/10/2012 02:50 10,5 C 86 % 1019,9 hPa 0,0 mm 0,7 km/h (0 Bft) SO 225 0 min 0 W/m 8,3 C 10,5 C 4,0 km/h (1 Bft)
02/10/2012 03:02 10,6 C 86 % 1019,9 hPa 0,0 mm 0,0 km/h (0 Bft) S 180 0 min 0 W/m 8,4 C 10,6 C 0,0 km/h (0 Bft)
02/10/2012 03:10 10,5 C 86 % 1019,8 hPa 0,0 mm 0,7 km/h (0 Bft) S-SO 202 0 min 0 W/m 8,3 C 10,5 C 4,3 km/h (1 Bft)
02/10/2012 03:20 10,4 C 86 % 1019,7 hPa 0,0 mm 1,4 km/h (1 Bft) SO 225 0 min 0 W/m 8,2 C 10,4 C 1,4 km/h (1 Bft)
02/10/2012 03:30 10,2 C 87 % 1019,6 hPa 0,0 mm 0,0 km/h (0 Bft) SO 225 0 min 0 W/m 8,1 C 10,2 C 3,2 km/h (1 Bft)
02/10/2012 03:40 10,0 C 87 % 1019,6 hPa 0,0 mm 1,4 km/h (1 Bft) S 180 0 min 0 W/m 7,9 C 10,0 C 4,0 km/h (1 Bft)
02/10/2012 03:50 9,9 C 87 % 1019,5 hPa 0,0 mm 2,2 km/h (1 Bft) S-SO 202 0 min 0 W/m 7,8 C 9,9 C 6,1 km/h (2 Bft)
02/10/2012 04:00 9,8 C 88 % 1019,5 hPa 0,0 mm 0,7 km/h (0 Bft) S 180 0 min 0 W/m 7,9 C 9,8 C 4,3 km/h (1 Bft)
02/10/2012 04:10 9,7 C 88 % 1019,4 hPa 0,0 mm 0,4 km/h (0 Bft) S-SO 202 0 min 0 W/m 7,8 C 9,7 C 1,4 km/h (1 Bft)
02/10/2012 04:20 9,6 C 88 % 1019,4 hPa 0,0 mm 0,4 km/h (0 Bft) S 180 0 min 0 W/m 7,7 C 9,6 C 0,4 km/h (0 Bft)
02/10/2012 04:30 9,5 C 89 % 1019,3 hPa 0,0 mm 1,8 km/h (1 Bft) S 180 0 min 0 W/m 7,8 C 9,5 C 1,8 km/h (1 Bft)
02/10/2012 04:40 9,4 C 89 % 1019,2 hPa 0,0 mm 1,8 km/h (1 Bft) S-SO 202 0 min 0 W/m 7,7 C 9,4 C 2,9 km/h (1 Bft)
02/10/2012 04:50 9,4 C 90 % 1019,3 hPa 0,0 mm 2,2 km/h (1 Bft) S-SO 202 0 min 0 W/m 7,8 C 9,4 C 3,2 km/h (1 Bft)
02/10/2012 05:00 9,4 C 90 % 1019,2 hPa 0,0 mm 0,0 km/h (0 Bft) S-SO 202 0 min 0 W/m 7,8 C 9,4 C 0,0 km/h (0 Bft)
02/10/2012 05:10 9,4 C 90 % 1019,2 hPa 0,0 mm 2,5 km/h (1 Bft) S 180 0 min 0 W/m 7,8 C 9,4 C 2,9 km/h (1 Bft)
02/10/2012 05:20 9,5 C 90 % 1019,2 hPa 0,0 mm 0,0 km/h (0 Bft) S 180 0 min 0 W/m 7,9 C 9,5 C 0,0 km/h (0 Bft)
02/10/2012 05:30 9,6 C 90 % 1019,2 hPa 0,0 mm 0,0 km/h (0 Bft) S-SO 202 0 min 0 W/m 8,0 C 9,6 C 3,2 km/h (1 Bft)
02/10/2012 05:40 9,5 C 90 % 1019,1 hPa 0,0 mm 0,4 km/h (0 Bft) S-SE 157 0 min 0 W/m 7,9 C 9,5 C 3,6 km/h (1 Bft)
02/10/2012 05:50 9,4 C 90 % 1019,3 hPa 0,0 mm 0,0 km/h (0 Bft) SO 225 0 min 0 W/m 7,8 C 9,4 C 0,0 km/h (0 Bft)
02/10/2012 06:00 9,4 C 90 % 1019,3 hPa 0,0 mm 1,1 km/h (1 Bft) S-SO 202 0 min 0 W/m 7,8 C 9,4 C 3,2 km/h (1 Bft)
02/10/2012 06:10 9,4 C 91 % 1019,2 hPa 0,0 mm 1,4 km/h (1 Bft) SO 225 0 min 0 W/m 8,0 C 9,4 C 4,3 km/h (1 Bft)
02/10/2012 06:20 9,5 C 91 % 1019,2 hPa 0,0 mm 1,4 km/h (1 Bft) S 180 0 min 0 W/m 8,1 C 9,5 C 3,2 km/h (1 Bft)
02/10/2012 06:30 9,7 C 91 % 1019,1 hPa 0,0 mm 2,9 km/h (1 Bft) SO 225 0 min 0 W/m 8,3 C 9,7 C 2,9 km/h (1 Bft)
02/10/2012 06:40 9,9 C 91 % 1019,1 hPa 0,0 mm 3,2 km/h (1 Bft) S 180 0 min 0 W/m 8,5 C 9,9 C 7,2 km/h (2 Bft)
02/10/2012 06:50 10,1 C 91 % 1019,2 hPa 0,0 mm 2,5 km/h (1 Bft) S 180 0 min 0 W/m 8,7 C 10,1 C 4,0 km/h (1 Bft)
02/10/2012 07:00 10,3 C 91 % 1019,2 hPa 0,0 mm 2,9 km/h (1 Bft) S-SO 202 0 min 0 W/m 8,9 C 10,3 C 2,9 km/h (1 Bft)
02/10/2012 07:10 10,4 C 90 % 1019,0 hPa 0,0 mm 5,4 km/h (2 Bft) SO 225 0 min 0 W/m 8,8 C 10,4 C 5,4 km/h (2 Bft)
02/10/2012 07:20 10,6 C 90 % 1019,0 hPa 0,0 mm 3,6 km/h (1 Bft) S-SO 202 0 min 0 W/m 9,0 C 10,6 C 9,7 km/h (2 Bft)
02/10/2012 07:30 10,8 C 89 % 1019,0 hPa 0,0 mm 3,6 km/h (1 Bft) S-SO 202 0 min 0 W/m 9,1 C 10,8 C 4,3 km/h (1 Bft)
02/10/2012 07:40 10,8 C 89 % 1019,0 hPa 0,0 mm 3,2 km/h (1 Bft) S-SO 202 0 min 0 W/m 9,1 C 10,8 C 10,8 km/h (2 Bft)
02/10/2012 07:50 10,9 C 88 % 1018,9 hPa 0,0 mm 5,8 km/h (2 Bft) S 180 0 min 0 W/m 9,0 C 10,9 C 8,3 km/h (2 Bft)
02/10/2012 08:00 10,9 C 88 % 1018,9 hPa 0,0 mm 1,1 km/h (1 Bft) S-SO 202 0 min 0 W/m 9,0 C 10,9 C 1,1 km/h (1 Bft)
02/10/2012 08:10 10,9 C 88 % 1018,9 hPa 0,0 mm 0,0 km/h (0 Bft) S 180 0 min 0 W/m 9,0 C 10,9 C 0,0 km/h (0 Bft)
02/10/2012 08:20 10,9 C 88 % 1019,0 hPa 0,0 mm 2,9 km/h (1 Bft) S-SO 202 0 min 0 W/m 9,0 C 10,9 C 4,3 km/h (1 Bft)
02/10/2012 08:30 10,9 C 88 % 1019,1 hPa 0,0 mm 2,5 km/h (1 Bft) S-SO 202 0 min 0 W/m 9,0 C 10,9 C 6,5 km/h (2 Bft)
02/10/2012 08:40 11,1 C 88 % 1019,2 hPa 0,0 mm 1,4 km/h (1 Bft) S-SO 202 0 min 0 W/m 9,2 C 11,1 C 4,0 km/h (1 Bft)
02/10/2012 08:50 11,1 C 88 % 1019,2 hPa 0,0 mm 5,0 km/h (1 Bft) S-SO 202 0 min 0 W/m 9,2 C 11,1 C 6,5 km/h (2 Bft)
02/10/2012 09:00 11,1 C 87 % 1019,3 hPa 0,0 mm 6,8 km/h (2 Bft) S-SE 157 0 min 0 W/m 9,0 C 11,1 C 11,9 km/h (2 Bft)
02/10/2012 09:10 11,2 C 87 % 1019,2 hPa 0,0 mm 6,8 km/h (2 Bft) N 360 0 min 0 W/m 9,1 C 11,2 C 6,8 km/h (2 Bft)
02/10/2012 09:20 11,7 C 87 % 1019,2 hPa 0,0 mm 2,9 km/h (1 Bft) S-SO 202 0 min 0 W/m 9,6 C 11,7 C 6,1 km/h (2 Bft)
02/10/2012 09:30 11,9 C 86 % 1019,3 hPa 0,0 mm 6,1 km/h (2 Bft) S 180 0 min 0 W/m 9,6 C 11,9 C 9,7 km/h (2 Bft)
02/10/2012 09:40 12,3 C 86 % 1019,3 hPa 0,0 mm 5,8 km/h (2 Bft) S 180 0 min 0 W/m 10,0 C 12,3 C 5,8 km/h (2 Bft)
02/10/2012 09:50 12,7 C 85 % 1019,2 hPa 0,0 mm 9,7 km/h (2 Bft) S-SO 202 0 min 0 W/m 10,2 C 12,7 C 11,9 km/h (2 Bft)
02/10/2012 10:00 13,0 C 83 % 1019,3 hPa 0,0 mm 5,8 km/h (2 Bft) S 180 0 min 0 W/m 10,2 C 13,0 C 8,6 km/h (2 Bft)
02/10/2012 10:10 13,4 C 82 % 1019,4 hPa 0,0 mm 6,5 km/h (2 Bft) S 180 0 min 0 W/m 10,4 C 13,4 C 11,9 km/h (2 Bft)
02/10/2012 10:20 13,5 C 81 % 1019,4 hPa 0,0 mm 5,8 km/h (2 Bft) S-SO 202 0 min 0 W/m 10,3 C 13,5 C 9,0 km/h (2 Bft)
02/10/2012 10:30 13,6 C 81 % 1019,3 hPa 0,0 mm 6,5 km/h (2 Bft) S-SO 202 0 min 0 W/m 10,4 C 13,6 C 10,4 km/h (2 Bft)
02/10/2012 10:40 13,7 C 80 % 1019,4 hPa 0,0 mm 8,6 km/h (2 Bft) SO 225 0 min 0 W/m 10,3 C 13,7 C 16,9 km/h (3 Bft)
02/10/2012 10:50 13,8 C 81 % 1019,5 hPa 0,0 mm 5,4 km/h (2 Bft) O 270 0 min 0 W/m 10,6 C 13,8 C 7,9 km/h (2 Bft)
02/10/2012 11:00 14,1 C 80 % 1019,5 hPa 0,0 mm 6,5 km/h (2 Bft) S-SO 202 0 min 0 W/m 10,7 C 14,1 C 6,5 km/h (2 Bft)
02/10/2012 11:10 14,4 C 80 % 1019,5 hPa 0,0 mm 8,6 km/h (2 Bft) S-SE 157 0 min 0 W/m 11,0 C 14,4 C 8,6 km/h (2 Bft)
02/10/2012 11:20 14,4 C 80 % 1019,6 hPa 0,0 mm 4,3 km/h (1 Bft) S-SO 202 0 min 0 W/m 11,0 C 14,4 C 9,4 km/h (2 Bft)
02/10/2012 11:30 14,5 C 81 % 1019,6 hPa 0,0 mm 10,1 km/h (2 Bft) S 180 0 min 0 W/m 11,3 C 14,5 C 16,9 km/h (3 Bft)
02/10/2012 11:40 14,5 C 82 % 1019,6 hPa 0,0 mm 10,8 km/h (2 Bft) O-SO 247 0 min 0 W/m 11,5 C 14,5 C 19,1 km/h (3 Bft)
02/10/2012 11:50 14,4 C 84 % 1019,7 hPa 0,0 mm 5,0 km/h (1 Bft) SO 225 0 min 0 W/m 11,7 C 14,4 C 6,5 km/h (2 Bft)
02/10/2012 12:00 14,3 C 84 % 1019,8 hPa 0,0 mm 7,9 km/h (2 Bft) O-SO 247 0 min 0 W/m 11,6 C 14,3 C 11,2 km/h (2 Bft)
02/10/2012 12:10 14,2 C 85 % 1019,9 hPa 0,0 mm 6,5 km/h (2 Bft) O-SO 247 0 min 0 W/m 11,7 C 14,2 C 10,8 km/h (2 Bft)
02/10/2012 12:20 13,8 C 86 % 1019,9 hPa 0,0 mm 4,0 km/h (1 Bft) SO 225 0 min 0 W/m 11,5 C 13,8 C 7,9 km/h (2 Bft)
02/10/2012 12:30 13,6 C 88 % 1019,8 hPa 0,0 mm 5,8 km/h (2 Bft) S-SO 202 0 min 0 W/m 11,6 C 13,6 C 5,8 km/h (2 Bft)
02/10/2012 12:40 13,5 C 88 % 1019,8 hPa 0,0 mm 4,7 km/h (1 Bft) SO 225 0 min 0 W/m 11,6 C 13,5 C 9,7 km/h (2 Bft)
02/10/2012 12:50 13,5 C 89 % 1019,8 hPa 0,0 mm 6,5 km/h (2 Bft) SO 225 0 min 0 W/m 11,7 C 13,5 C 7,2 km/h (2 Bft)
02/10/2012 13:00 13,5 C 90 % 1019,8 hPa 0,0 mm 2,9 km/h (1 Bft) S-SO 202 0 min 0 W/m 11,9 C 13,5 C 6,5 km/h (2 Bft)
02/10/2012 13:10 13,4 C 90 % 1019,8 hPa 0,0 mm 5,0 km/h (1 Bft) S-SO 202 0 min 0 W/m 11,8 C 13,4 C 8,6 km/h (2 Bft)
02/10/2012 13:20 13,6 C 91 % 1019,7 hPa 0,0 mm 4,7 km/h (1 Bft) S-SO 202 0 min 0 W/m 12,2 C 13,6 C 9,0 km/h (2 Bft)
02/10/2012 13:30 13,8 C 91 % 1019,6 hPa 0,0 mm 7,2 km/h (2 Bft) SO 225 0 min 0 W/m 12,4 C 13,8 C 10,1 km/h (2 Bft)
02/10/2012 13:40 13,9 C 91 % 1019,7 hPa 0,0 mm 7,6 km/h (2 Bft) SO 225 0 min 0 W/m 12,5 C 13,9 C 13,0 km/h (3 Bft)
02/10/2012 13:50 13,9 C 90 % 1019,5 hPa 0,0 mm 6,1 km/h (2 Bft) S-SO 202 0 min 0 W/m 12,3 C 13,9 C 9,4 km/h (2 Bft)
02/10/2012 14:00 14,0 C 90 % 1019,5 hPa 0,0 mm 5,8 km/h (2 Bft) S 180 0 min 0 W/m 12,4 C 14,0 C 8,6 km/h (2 Bft)
02/10/2012 14:10 14,1 C 90 % 1019,5 hPa 0,0 mm 4,0 km/h (1 Bft) S-SO 202 0 min 0 W/m 12,5 C 14,1 C 7,9 km/h (2 Bft)
02/10/2012 14:20 14,4 C 90 % 1019,4 hPa 0,0 mm 5,0 km/h (1 Bft) O-SO 247 0 min 0 W/m 12,8 C 14,4 C 9,7 km/h (2 Bft)
02/10/2012 14:30 14,8 C 88 % 1019,4 hPa 0,0 mm 6,1 km/h (2 Bft) S-SO 202 0 min 0 W/m 12,8 C 14,8 C 8,3 km/h (2 Bft)
02/10/2012 14:40 15,1 C 88 % 1019,5 hPa 0,0 mm 9,0 km/h (2 Bft) SO 225 0 min 0 W/m 13,1 C 15,1 C 15,1 km/h (3 Bft)
02/10/2012 14:50 15,5 C 87 % 1019,4 hPa 0,0 mm 4,0 km/h (1 Bft) SO 225 0 min 0 W/m 13,3 C 15,5 C 4,0 km/h (1 Bft)
02/10/2012 15:00 15,9 C 85 % 1019,3 hPa 0,0 mm 1,4 km/h (1 Bft) S-SO 202 0 min 0 W/m 13,4 C 15,9 C 4,3 km/h (1 Bft)
02/10/2012 15:10 16,3 C 84 % 1019,2 hPa 0,0 mm 6,5 km/h (2 Bft) S-SO 202 0 min 0 W/m 13,6 C 16,3 C 11,5 km/h (2 Bft)
02/10/2012 15:20 16,8 C 79 % 1019,2 hPa 0,0 mm 9,4 km/h (2 Bft) S-SO 202 0 min 0 W/m 13,1 C 16,8 C 15,1 km/h (3 Bft)
02/10/2012 15:30 17,3 C 79 % 1019,2 hPa 0,0 mm 5,8 km/h (2 Bft) SO 225 0 min 0 W/m 13,6 C 17,3 C 11,5 km/h (2 Bft)
02/10/2012 15:40 17,5 C 77 % 1019,2 hPa 0,0 mm 4,0 km/h (1 Bft) SO 225 0 min 0 W/m 13,4 C 17,5 C 4,3 km/h (1 Bft)
02/10/2012 15:50 17,5 C 75 % 1019,2 hPa 0,0 mm 4,3 km/h (1 Bft) S 180 0 min 0 W/m 13,0 C 17,5 C 4,3 km/h (1 Bft)
02/10/2012 16:00 17,4 C 75 % 1019,1 hPa 0,0 mm 5,4 km/h (2 Bft) SO 225 0 min 0 W/m 12,9 C 17,4 C 8,6 km/h (2 Bft)
02/10/2012 16:10 17,1 C 76 % 1019,1 hPa 0,0 mm 2,9 km/h (1 Bft) O-SO 247 0 min 0 W/m 12,8 C 17,1 C 4,0 km/h (1 Bft)
02/10/2012 16:20 17,1 C 77 % 1019,0 hPa 0,0 mm 2,2 km/h (1 Bft) S-SO 202 0 min 0 W/m 13,0 C 17,1 C 4,3 km/h (1 Bft)
02/10/2012 16:30 17,2 C 76 % 1018,9 hPa 0,0 mm 1,4 km/h (1 Bft) SO 225 0 min 0 W/m 12,9 C 17,2 C 1,4 km/h (1 Bft)
02/10/2012 16:40 17,1 C 74 % 1019,0 hPa 0,0 mm 6,5 km/h (2 Bft) S-SE 157 0 min 0 W/m 12,4 C 17,1 C 10,1 km/h (2 Bft)
02/10/2012 16:50 17,2 C 75 % 1018,9 hPa 0,0 mm 2,9 km/h (1 Bft) O-SO 247 0 min 0 W/m 12,7 C 17,2 C 6,1 km/h (2 Bft)
02/10/2012 17:00 17,2 C 74 % 1018,9 hPa 0,0 mm 4,3 km/h (1 Bft) S-SO 202 0 min 0 W/m 12,5 C 17,2 C 6,5 km/h (2 Bft)
02/10/2012 17:10 17,1 C 75 % 1018,8 hPa 0,0 mm 3,2 km/h (1 Bft) S-SO 202 0 min 0 W/m 12,6 C 17,1 C 7,9 km/h (2 Bft)
02/10/2012 17:20 17,1 C 75 % 1018,8 hPa 0,0 mm 2,9 km/h (1 Bft) O-SO 247 0 min 0 W/m 12,6 C 17,1 C 3,6 km/h (1 Bft)
02/10/2012 17:30 17,1 C 75 % 1018,8 hPa 0,0 mm 9,4 km/h (2 Bft) S-SO 202 0 min 0 W/m 12,6 C 17,1 C 10,8 km/h (2 Bft)
02/10/2012 17:40 17,1 C 74 % 1018,8 hPa 0,0 mm 9,0 km/h (2 Bft) S-SO 202 0 min 0 W/m 12,4 C 17,1 C 10,8 km/h (2 Bft)
02/10/2012 17:50 17,3 C 73 % 1018,7 hPa 0,0 mm 9,0 km/h (2 Bft) S-SO 202 0 min 0 W/m 12,4 C 17,3 C 13,3 km/h (3 Bft)
02/10/2012 18:00 17,2 C 73 % 1018,6 hPa 0,0 mm 7,6 km/h (2 Bft) S-SO 202 0 min 0 W/m 12,3 C 17,2 C 13,7 km/h (3 Bft)
02/10/2012 18:10 16,9 C 74 % 1018,6 hPa 0,0 mm 6,1 km/h (2 Bft) SO 225 0 min 0 W/m 12,2 C 16,9 C 10,4 km/h (2 Bft)
02/10/2012 18:20 16,8 C 75 % 1018,5 hPa 0,0 mm 6,1 km/h (2 Bft) S-SO 202 0 min 0 W/m 12,3 C 16,8 C 6,1 km/h (2 Bft)
02/10/2012 18:30 16,6 C 77 % 1018,5 hPa 0,0 mm 7,2 km/h (2 Bft) SO 225 0 min 0 W/m 12,5 C 16,6 C 10,8 km/h (2 Bft)
02/10/2012 18:40 16,4 C 77 % 1018,4 hPa 0,0 mm 6,8 km/h (2 Bft) SO 225 0 min 0 W/m 12,4 C 16,4 C 13,7 km/h (3 Bft)
02/10/2012 18:50 16,3 C 77 % 1018,4 hPa 0,0 mm 5,0 km/h (1 Bft) S-SO 202 0 min 0 W/m 12,3 C 16,3 C 9,7 km/h (2 Bft)
02/10/2012 19:00 16,1 C 77 % 1018,2 hPa 0,0 mm 4,0 km/h (1 Bft) SO 225 0 min 0 W/m 12,1 C 16,1 C 4,0 km/h (1 Bft)
02/10/2012 19:10 15,8 C 79 % 1018,2 hPa 0,0 mm 7,9 km/h (2 Bft) S-SO 202 0 min 0 W/m 12,2 C 15,8 C 9,4 km/h (2 Bft)
02/10/2012 19:20 15,6 C 79 % 1018,2 hPa 0,0 mm 3,6 km/h (1 Bft) SO 225 0 min 0 W/m 12,0 C 15,6 C 3,6 km/h (1 Bft)
02/10/2012 19:30 15,4 C 80 % 1018,3 hPa 0,0 mm 5,4 km/h (2 Bft) S-SO 202 0 min 0 W/m 12,0 C 15,4 C 7,6 km/h (2 Bft)
02/10/2012 19:40 15,4 C 81 % 1018,3 hPa 0,0 mm 6,5 km/h (2 Bft) S-SO 202 0 min 0 W/m 12,2 C 15,4 C 10,4 km/h (2 Bft)
02/10/2012 19:50 15,3 C 81 % 1018,3 hPa 0,0 mm 6,5 km/h (2 Bft) SO 225 0 min 0 W/m 12,1 C 15,3 C 8,6 km/h (2 Bft)
02/10/2012 20:00 15,1 C 82 % 1018,2 hPa 0,0 mm 4,7 km/h (1 Bft) S-SO 202 0 min 0 W/m 12,0 C 15,1 C 13,0 km/h (3 Bft)
02/10/2012 20:10 15,1 C 82 % 1018,3 hPa 0,0 mm 4,7 km/h (1 Bft) S-SO 202 0 min 0 W/m 12,0 C 15,1 C 4,7 km/h (1 Bft)
02/10/2012 20:20 15,0 C 82 % 1018,4 hPa 0,0 mm 7,2 km/h (2 Bft) SO 225 0 min 0 W/m 12,0 C 15,0 C 12,6 km/h (3 Bft)
02/10/2012 20:30 14,9 C 83 % 1018,3 hPa 0,0 mm 7,2 km/h (2 Bft) SO 225 0 min 0 W/m 12,0 C 14,9 C 13,0 km/h (3 Bft)
02/10/2012 20:40 14,6 C 83 % 1018,2 hPa 0,0 mm 6,5 km/h (2 Bft) S-SO 202 0 min 0 W/m 11,7 C 14,6 C 9,0 km/h (2 Bft)
02/10/2012 20:50 14,5 C 84 % 1018,2 hPa 0,0 mm 9,4 km/h (2 Bft) S-SO 202 0 min 0 W/m 11,8 C 14,5 C 11,2 km/h (2 Bft)
02/10/2012 21:00 14,4 C 84 % 1018,3 hPa 0,0 mm 4,3 km/h (1 Bft) S 180 0 min 0 W/m 11,7 C 14,4 C 4,3 km/h (1 Bft)
02/10/2012 21:10 14,4 C 84 % 1018,4 hPa 0,0 mm 8,6 km/h (2 Bft) S-SO 202 0 min 0 W/m 11,7 C 14,4 C 9,7 km/h (2 Bft)
02/10/2012 21:20 14,4 C 84 % 1018,2 hPa 0,0 mm 3,6 km/h (1 Bft) SO 225 0 min 0 W/m 11,7 C 14,4 C 7,6 km/h (2 Bft)
02/10/2012 21:30 14,4 C 85 % 1018,4 hPa 0,0 mm 2,5 km/h (1 Bft) S-SO 202 0 min 0 W/m 11,9 C 14,4 C 2,9 km/h (1 Bft)
02/10/2012 21:40 14,5 C 85 % 1018,3 hPa 0,0 mm 5,8 km/h (2 Bft) S-SO 202 0 min 0 W/m 12,0 C 14,5 C 6,8 km/h (2 Bft)
02/10/2012 21:50 14,5 C 85 % 1018,2 hPa 0,0 mm 7,9 km/h (2 Bft) SO 225 0 min 0 W/m 12,0 C 14,5 C 12,2 km/h (2 Bft)
02/10/2012 22:00 14,5 C 85 % 1018,3 hPa 0,0 mm 3,2 km/h (1 Bft) SE 135 0 min 0 W/m 12,0 C 14,5 C 4,3 km/h (1 Bft)
02/10/2012 22:10 14,4 C 85 % 1018,5 hPa 0,0 mm 7,9 km/h (2 Bft) S-SO 202 0 min 0 W/m 11,9 C 14,4 C 13,3 km/h (3 Bft)
02/10/2012 22:20 14,5 C 86 % 1018,4 hPa 0,0 mm 5,0 km/h (1 Bft) S-SO 202 0 min 0 W/m 12,2 C 14,5 C 14,4 km/h (3 Bft)
02/10/2012 22:30 14,5 C 86 % 1018,3 hPa 0,0 mm 2,5 km/h (1 Bft) S-SO 202 0 min 0 W/m 12,2 C 14,5 C 2,9 km/h (1 Bft)
02/10/2012 22:40 14,6 C 87 % 1018,5 hPa 0,0 mm 6,8 km/h (2 Bft) SO 225 0 min 0 W/m 12,5 C 14,6 C 12,6 km/h (3 Bft)
02/10/2012 22:50 14,6 C 87 % 1018,5 hPa 0,0 mm 2,2 km/h (1 Bft) S-SO 202 0 min 0 W/m 12,5 C 14,6 C 2,2 km/h (1 Bft)
02/10/2012 23:00 14,7 C 87 % 1018,5 hPa 0,0 mm 1,4 km/h (1 Bft) SO 225 0 min 0 W/m 12,6 C 14,7 C 6,8 km/h (2 Bft)
02/10/2012 23:10 14,8 C 87 % 1018,4 hPa 0,0 mm 6,5 km/h (2 Bft) S-SO 202 0 min 0 W/m 12,7 C 14,8 C 8,3 km/h (2 Bft)
02/10/2012 23:20 14,8 C 87 % 1018,4 hPa 0,0 mm 3,6 km/h (1 Bft) S-SO 202 0 min 0 W/m 12,7 C 14,8 C 6,8 km/h (2 Bft)
02/10/2012 23:30 14,8 C 87 % 1018,3 hPa 0,0 mm 3,2 km/h (1 Bft) O-SO 247 0 min 0 W/m 12,7 C 14,8 C 4,3 km/h (1 Bft)
02/10/2012 23:40 14,8 C 87 % 1018,2 hPa 0,0 mm 6,5 km/h (2 Bft) S 180 0 min 0 W/m 12,7 C 14,8 C 13,7 km/h (3 Bft)
02/10/2012 23:50 14,6 C 88 % 1018,2 hPa 0,0 mm 4,7 km/h (1 Bft) SO 225 0 min 0 W/m 12,6 C 14,6 C 8,6 km/h (2 Bft)
_ Min-Heure 06:10 18:00 23:50 - 08:10 - - - - 00:00 06:10 08:10
Minimum _ 9,4 C 73 % 1018,2 hPa - 0,0 km/h (0 Bft) - - - - 6,7 C 9,4 C 0,0 km/h (0 Bft)
_ Max-Heure 15:50 13:40 01:10 23:50 11:40 - - 23:50 23:50 15:30 15:50 11:40
Maximum _ 17,5 C 91 % 1020,4 hPa 0,0 mm 10,8 km/h
O-SO (2 Bft)
- - 0 min 0 W/m 13,6 C 17,5 C 19,1 km/h
O-SO (3 Bft)
Moyenne _ 13,1 C 85 % 1019,2 hPa #0,0 mm 4,1 km/h (1 Bft) S-SO - #0 min. 0 W/m 10,5 C 13,1 C 6,7 km/h (2 Bft)
Saint Bonnet de Bellac- Haute Vienne - France